Station Historical Data
Daily Summary for April 10, 2017 Units:  English    Metric   Both
« Previous Day
Next Day »
Daily Weekly Monthly Yearly Custom
  High: Low: Average:
Temperature: 75.7 °F 53.7 °F 66.1 °F
Dew Point: 53.2 °F 31.4 °F 42.2 °F
Humidity: 78% 30% 43%
Wind Speed: 20.0mph 0.0mph 5.2mph
Wind Gust: 28.0mph - -
Wind- - SW
Pressure: 30.00 in 29.86 in -
Precipitation: 0.00 in    
Historical Graphs
 
 
Tabular Data for April 10, 2017
Time Temperature Dew Point Pressure Wind Wind Speed Wind Gust Humidity Rainfall Rate (Hourly)
00:04 62.7 °F 34.6 °F 29.95 in SSE 2.0 mph 6.0 mph 35% 0.00 in
00:09 62.6 °F 34.5 °F 29.95 in South 3.0 mph 8.0 mph 35% 0.00 in
00:14 62.4 °F 34.4 °F 29.95 in SSW 3.0 mph 8.0 mph 35% 0.00 in
00:19 62.2 °F 34.2 °F 29.95 in SSW 2.0 mph 6.0 mph 35% 0.00 in
00:24 62.1 °F 34.1 °F 29.95 in South 3.0 mph 6.0 mph 35% 0.00 in
00:29 61.8 °F 34.5 °F 29.95 in South 2.0 mph 4.0 mph 36% 0.00 in
00:34 61.5 °F 34.3 °F 29.95 in SSW 1.0 mph 5.0 mph 36% 0.00 in
00:39 61.2 °F 34.0 °F 29.95 in SSW 1.0 mph 3.0 mph 36% 0.00 in
00:44 60.9 °F 33.7 °F 29.95 in SSW 2.0 mph 4.0 mph 36% 0.00 in
00:49 60.7 °F 34.3 °F 29.95 in SW 1.0 mph 4.0 mph 37% 0.00 in
00:54 60.4 °F 34.0 °F 29.95 in SSW 1.0 mph 4.0 mph 37% 0.00 in
00:59 60.3 °F 34.6 °F 29.95 in SSW 1.0 mph 3.0 mph 38% 0.00 in
01:04 59.9 °F 34.2 °F 29.95 in Calm     38% 0.00 in
01:09 59.7 °F 34.0 °F 29.96 in Calm     38% 0.00 in
01:14 59.4 °F 34.4 °F 29.96 in Calm   2.0 mph 39% 0.00 in
01:19 59.0 °F 34.1 °F 29.96 in Calm   2.0 mph 39% 0.00 in
01:24 58.5 °F 34.2 °F 29.95 in Calm   2.0 mph 40% 0.00 in
01:29 58.1 °F 33.9 °F 29.96 in Calm   2.0 mph 40% 0.00 in
01:34 57.7 °F 34.1 °F 29.95 in Calm     41% 0.00 in
01:39 57.3 °F 33.8 °F 29.95 in Calm     41% 0.00 in
01:44 56.9 °F 34.0 °F 29.95 in Calm     42% 0.00 in
01:49 56.4 °F 33.6 °F 29.95 in Calm     42% 0.00 in
01:54 55.9 °F 33.7 °F 29.95 in Calm     43% 0.00 in
01:59 55.4 °F 33.3 °F 29.95 in Calm     43% 0.00 in
02:04 55.1 °F 34.1 °F 29.95 in SE 5.0 mph 8.0 mph 45% 0.00 in
02:09 54.7 °F 33.8 °F 29.94 in SSW 2.0 mph 5.0 mph 45% 0.00 in
02:14 54.4 °F 34.0 °F 29.94 in SSW 2.0 mph 5.0 mph 46% 0.00 in
02:19 54.3 °F 33.4 °F 29.94 in SSW 2.0 mph 5.0 mph 45% 0.00 in
02:24 54.2 °F 33.9 °F 29.94 in SSW 2.0 mph 4.0 mph 46% 0.00 in
02:29 54.1 °F 33.8 °F 29.94 in SSW 1.0 mph 5.0 mph 46% 0.00 in
02:34 54.0 °F 33.7 °F 29.94 in SSW 1.0 mph 5.0 mph 46% 0.00 in
02:39 53.8 °F 33.5 °F 29.94 in South 3.0 mph 3.0 mph 46% 0.00 in
02:44 53.8 °F 33.5 °F 29.94 in South 2.0 mph 4.0 mph 46% 0.00 in
02:49 53.7 °F 33.4 °F 29.94 in South 2.0 mph 3.0 mph 46% 0.00 in
02:54 53.7 °F 33.4 °F 29.94 in SSW 2.0 mph 4.0 mph 46% 0.00 in
02:59 53.7 °F 32.8 °F 29.94 in South 1.0 mph 4.0 mph 45% 0.00 in
03:04 53.8 °F 32.9 °F 29.94 in South 2.0 mph 4.0 mph 45% 0.00 in
03:09 53.9 °F 33.0 °F 29.94 in South 1.0 mph 4.0 mph 45% 0.00 in
03:14 54.1 °F 33.2 °F 29.93 in South 2.0 mph 4.0 mph 45% 0.00 in
03:19 54.2 °F 33.3 °F 29.93 in SSE 2.0 mph 4.0 mph 45% 0.00 in
03:24 54.3 °F 33.4 °F 29.93 in South 2.0 mph 5.0 mph 45% 0.00 in
03:29 54.5 °F 33.6 °F 29.93 in South 2.0 mph 5.0 mph 45% 0.00 in
03:34 54.9 °F 33.4 °F 29.93 in South 2.0 mph 4.0 mph 44% 0.00 in
03:39 55.2 °F 33.6 °F 29.93 in South 3.0 mph 5.0 mph 44% 0.00 in
03:44 55.7 °F 33.5 °F 29.93 in South 3.0 mph 7.0 mph 43% 0.00 in
03:49 56.4 °F 33.6 °F 29.93 in South 3.0 mph 6.0 mph 42% 0.00 in
03:54 56.8 °F 33.9 °F 29.93 in South 2.0 mph 4.0 mph 42% 0.00 in
03:59 57.1 °F 33.6 °F 29.92 in SSE 1.0 mph 5.0 mph 41% 0.00 in
04:04 57.5 °F 33.3 °F 29.93 in SSW 7.0 mph 8.0 mph 40% 0.00 in
04:09 58.3 °F 33.4 °F 29.92 in South 3.0 mph 9.0 mph 39% 0.00 in
04:14 58.7 °F 33.1 °F 29.92 in South 3.0 mph 6.0 mph 38% 0.00 in
04:19 59.2 °F 32.9 °F 29.93 in South 3.0 mph 6.0 mph 37% 0.00 in
04:24 59.4 °F 33.1 °F 29.93 in South 3.0 mph 6.0 mph 37% 0.00 in
04:29 59.7 °F 32.7 °F 29.93 in South 4.0 mph 8.0 mph 36% 0.00 in
04:34 60.0 °F 32.9 °F 29.93 in South 4.0 mph 8.0 mph 36% 0.00 in
04:39 60.4 °F 32.6 °F 29.93 in SSW 4.0 mph 9.0 mph 35% 0.00 in
04:44 60.7 °F 32.9 °F 29.92 in SSW 5.0 mph 9.0 mph 35% 0.00 in
04:49 61.1 °F 32.5 °F 29.92 in South 5.0 mph 9.0 mph 34% 0.00 in
04:54 61.3 °F 32.7 °F 29.92 in SSW 4.0 mph 10.0 mph 34% 0.00 in
04:59 61.6 °F 32.9 °F 29.92 in SSW 8.0 mph 8.0 mph 34% 0.00 in
05:04 61.9 °F 31.7 °F 29.92 in South 8.0 mph 11.0 mph 32% 0.00 in
05:09 62.4 °F 32.1 °F 29.92 in SW 5.0 mph 10.0 mph 32% 0.00 in
05:14 62.7 °F 32.4 °F 29.92 in South 2.0 mph 8.0 mph 32% 0.00 in
05:19 62.7 °F 32.4 °F 29.91 in SSW 5.0 mph 13.0 mph 32% 0.00 in
05:24 62.9 °F 32.6 °F 29.91 in SSW 5.0 mph 13.0 mph 32% 0.00 in
05:29 63.0 °F 31.9 °F 29.91 in South 6.0 mph 15.0 mph 31% 0.00 in
05:34 63.1 °F 31.9 °F 29.91 in SSE 3.0 mph 12.0 mph 31% 0.00 in
05:39 63.0 °F 31.9 °F 29.91 in South 5.0 mph 11.0 mph 31% 0.00 in
05:44 63.1 °F 32.7 °F 29.91 in SW 4.0 mph 14.0 mph 32% 0.00 in
05:49 63.1 °F 31.9 °F 29.91 in SSW 5.0 mph 14.0 mph 31% 0.00 in
05:54 63.1 °F 31.9 °F 29.91 in SSW 6.0 mph 15.0 mph 31% 0.00 in
05:59 63.1 °F 31.9 °F 29.91 in SSW 6.0 mph 15.0 mph 31% 0.00 in
06:04 63.2 °F 32.0 °F 29.91 in SSW 5.0 mph 15.0 mph 31% 0.00 in
06:09 63.1 °F 31.9 °F 29.91 in South 5.0 mph 13.0 mph 31% 0.00 in
06:14 63.1 °F 31.9 °F 29.91 in SSW 7.0 mph 10.0 mph 31% 0.00 in
06:19 63.2 °F 32.0 °F 29.91 in SSW 5.0 mph 13.0 mph 31% 0.00 in
06:24 63.3 °F 32.1 °F 29.91 in SSW 7.0 mph 15.0 mph 31% 0.00 in
06:29 63.4 °F 32.2 °F 29.91 in South 3.0 mph 14.0 mph 31% 0.00 in
06:34 63.4 °F 31.4 °F 29.91 in South 9.0 mph 13.0 mph 30% 0.00 in
06:39 63.5 °F 31.5 °F 29.90 in SW 4.0 mph 14.0 mph 30% 0.00 in
06:44 63.6 °F 31.6 °F 29.91 in South 7.0 mph 15.0 mph 30% 0.00 in
06:49 63.6 °F 31.6 °F 29.91 in SSW 7.0 mph 15.0 mph 30% 0.00 in
06:54 63.6 °F 32.4 °F 29.91 in SSW 6.0 mph 13.0 mph 31% 0.00 in
06:59 63.6 °F 32.4 °F 29.91 in SSW 6.0 mph 13.0 mph 31% 0.00 in
07:04 63.6 °F 32.4 °F 29.91 in SSW 6.0 mph 11.0 mph 31% 0.00 in
07:09 63.5 °F 32.3 °F 29.91 in SSW 5.0 mph 10.0 mph 31% 0.00 in
07:14 63.5 °F 32.3 °F 29.91 in SW 6.0 mph 14.0 mph 31% 0.00 in
07:19 63.6 °F 32.4 °F 29.91 in SW 7.0 mph 9.0 mph 31% 0.00 in
07:24 63.7 °F 32.5 °F 29.91 in South 5.0 mph 14.0 mph 31% 0.00 in
07:29 63.8 °F 32.6 °F 29.91 in SW 4.0 mph 12.0 mph 31% 0.00 in
07:34 63.9 °F 32.6 °F 29.91 in SSW 7.0 mph 16.0 mph 31% 0.00 in
07:39 64.0 °F 32.7 °F 29.91 in South 4.0 mph 15.0 mph 31% 0.00 in
07:44 64.1 °F 32.8 °F 29.91 in South 7.0 mph 15.0 mph 31% 0.00 in
07:49 64.1 °F 32.8 °F 29.91 in SSW 7.0 mph 16.0 mph 31% 0.00 in
07:54 64.2 °F 32.9 °F 29.91 in SSW 7.0 mph 16.0 mph 31% 0.00 in
07:59 64.3 °F 33.0 °F 29.91 in South 7.0 mph 16.0 mph 31% 0.00 in
08:04 64.4 °F 33.9 °F 29.91 in SSW 6.0 mph 12.0 mph 32% 0.00 in
08:09 64.5 °F 34.0 °F 29.91 in SSW 4.0 mph 12.0 mph 32% 0.00 in
08:14 64.6 °F 34.1 °F 29.92 in South 8.0 mph 11.0 mph 32% 0.00 in
08:19 64.8 °F 34.2 °F 29.92 in SSW 6.0 mph 15.0 mph 32% 0.00 in
08:24 65.0 °F 34.4 °F 29.92 in SSW 6.0 mph 15.0 mph 32% 0.00 in
08:29 65.3 °F 33.9 °F 29.92 in South 6.0 mph 12.0 mph 31% 0.00 in
08:34 65.5 °F 35.6 °F 29.92 in South 3.0 mph 14.0 mph 33% 0.00 in
08:39 65.8 °F 34.3 °F 29.91 in South 9.0 mph 16.0 mph 31% 0.00 in
08:44 66.1 °F 35.4 °F 29.91 in South 7.0 mph 13.0 mph 32% 0.00 in
08:49 66.3 °F 34.7 °F 29.91 in SSW 6.0 mph 16.0 mph 31% 0.00 in
08:54 66.5 °F 35.7 °F 29.91 in SSW 7.0 mph 16.0 mph 32% 0.00 in
08:59 66.7 °F 35.9 °F 29.91 in SSW 7.0 mph 15.0 mph 32% 0.00 in
09:04 66.9 °F 36.8 °F 29.91 in SSW 6.0 mph 14.0 mph 33% 0.00 in
09:09 67.2 °F 36.3 °F 29.92 in South 4.0 mph 11.0 mph 32% 0.00 in
09:14 67.6 °F 36.7 °F 29.92 in SW 4.0 mph 14.0 mph 32% 0.00 in
09:19 67.8 °F 36.8 °F 29.92 in SSW 6.0 mph 14.0 mph 32% 0.00 in
09:24 68.2 °F 38.0 °F 29.92 in SSW 7.0 mph 15.0 mph 33% 0.00 in
09:29 68.6 °F 37.5 °F 29.92 in SSW 7.0 mph 15.0 mph 32% 0.00 in
09:34 68.9 °F 37.8 °F 29.92 in SSW 7.0 mph 17.0 mph 32% 0.00 in
09:39 69.3 °F 37.3 °F 29.92 in South 7.0 mph 17.0 mph 31% 0.00 in
09:44 69.6 °F 38.4 °F 29.92 in South 7.0 mph 11.0 mph 32% 0.00 in
09:49 69.6 °F 38.4 °F 29.92 in SSW 8.0 mph 20.0 mph 32% 0.00 in
09:54 69.5 °F 39.1 °F 29.92 in SSW 9.0 mph 20.0 mph 33% 0.00 in
09:59 69.5 °F 38.3 °F 29.92 in SSW 8.0 mph 17.0 mph 32% 0.00 in
10:04 69.4 °F 38.2 °F 29.92 in SSW 7.0 mph 20.0 mph 32% 0.00 in
10:09 69.4 °F 39.0 °F 29.92 in SSW 6.0 mph 21.0 mph 33% 0.00 in
10:14 69.3 °F 38.9 °F 29.92 in South 6.0 mph 16.0 mph 33% 0.00 in
10:19 69.4 °F 39.8 °F 29.92 in SSW 7.0 mph 16.0 mph 34% 0.00 in
10:24 69.5 °F 39.9 °F 29.92 in SSW 7.0 mph 16.0 mph 34% 0.00 in
10:29 69.8 °F 40.2 °F 29.92 in SSW 7.0 mph 16.0 mph 34% 0.00 in
10:34 70.2 °F 40.5 °F 29.92 in SSW 7.0 mph 14.0 mph 34% 0.00 in
10:39 70.7 °F 40.9 °F 29.92 in WSW 10.0 mph 20.0 mph 34% 0.00 in
10:44 71.1 °F 41.3 °F 29.92 in SSW 8.0 mph 20.0 mph 34% 0.00 in
10:49 71.4 °F 40.8 °F 29.93 in SSW 8.0 mph 19.0 mph 33% 0.00 in
10:54 71.3 °F 41.5 °F 29.93 in South 8.0 mph 16.0 mph 34% 0.00 in
10:59 71.2 °F 41.4 °F 29.92 in SW 6.0 mph 17.0 mph 34% 0.00 in
11:04 71.2 °F 42.1 °F 29.92 in WSW 8.0 mph 16.0 mph 35% 0.00 in
11:09 71.1 °F 42.0 °F 29.92 in SW 8.0 mph 17.0 mph 35% 0.00 in
11:14 71.4 °F 43.0 °F 29.92 in SW 5.0 mph 15.0 mph 36% 0.00 in
11:19 71.9 °F 43.5 °F 29.93 in SSW 8.0 mph 16.0 mph 36% 0.00 in
11:24 72.4 °F 43.2 °F 29.93 in SSW 8.0 mph 21.0 mph 35% 0.00 in
11:29 72.5 °F 44.0 °F 29.93 in SSW 8.0 mph 21.0 mph 36% 0.00 in
11:34 72.9 °F 43.6 °F 29.93 in SW 9.0 mph 18.0 mph 35% 0.00 in
11:39 73.2 °F 43.9 °F 29.93 in SW 9.0 mph 21.0 mph 35% 0.00 in
11:44 73.3 °F 44.0 °F 29.93 in South 20.0 mph 21.0 mph 35% 0.00 in
11:49 73.1 °F 44.5 °F 29.93 in SW 9.0 mph 21.0 mph 36% 0.00 in
11:54 73.2 °F 45.4 °F 29.93 in SW 8.0 mph 20.0 mph 37% 0.00 in
11:59 73.2 °F 45.4 °F 29.93 in SW 9.0 mph 18.0 mph 37% 0.00 in
12:04 73.3 °F 46.2 °F 29.92 in SW 10.0 mph 22.0 mph 38% 0.00 in
12:09 73.4 °F 45.5 °F 29.92 in South 11.0 mph 19.0 mph 37% 0.00 in
12:14 73.6 °F 45.7 °F 29.93 in South 6.0 mph 27.0 mph 37% 0.00 in
12:19 73.9 °F 46.0 °F 29.93 in SW 10.0 mph 27.0 mph 37% 0.00 in
12:24 74.2 °F 45.5 °F 29.93 in SSW 8.0 mph 20.0 mph 36% 0.00 in
12:29 74.4 °F 47.1 °F 29.93 in WSW 10.0 mph 15.0 mph 38% 0.00 in
12:34 74.9 °F 46.9 °F 29.93 in SW 8.0 mph 17.0 mph 37% 0.00 in
12:39 75.1 °F 47.0 °F 29.93 in WSW 11.0 mph 23.0 mph 37% 0.00 in
12:44 75.0 °F 47.0 °F 29.93 in SSW 18.0 mph 19.0 mph 37% 0.00 in
12:49 75.1 °F 47.0 °F 29.93 in SW 11.0 mph 20.0 mph 37% 0.00 in
12:54 75.1 °F 47.0 °F 29.93 in SW 10.0 mph 20.0 mph 37% 0.00 in
12:59 75.0 °F 47.0 °F 29.93 in SW 10.0 mph 21.0 mph 37% 0.00 in
13:04 74.7 °F 47.4 °F 29.93 in WSW 11.0 mph 21.0 mph 38% 0.00 in
13:09 74.7 °F 47.4 °F 29.93 in WSW 11.0 mph 21.0 mph 38% 0.00 in
13:14 74.8 °F 47.5 °F 29.93 in WNW 14.0 mph 24.0 mph 38% 0.00 in
13:19 74.7 °F 48.8 °F 29.93 in WSW 12.0 mph 24.0 mph 40% 0.00 in
13:24 75.0 °F 48.4 °F 29.93 in WSW 6.0 mph 21.0 mph 39% 0.00 in
13:29 75.2 °F 47.8 °F 29.93 in SE 7.0 mph 24.0 mph 38% 0.00 in
13:34 75.3 °F 49.3 °F 29.92 in WSW 12.0 mph 20.0 mph 40% 0.00 in
13:39 75.5 °F 48.1 °F 29.92 in South 15.0 mph 22.0 mph 38% 0.00 in
13:44 75.7 °F 49.0 °F 29.93 in SW 9.0 mph 19.0 mph 39% 0.00 in
13:49 75.5 °F 48.8 °F 29.92 in WNW 10.0 mph 19.0 mph 39% 0.00 in
13:54 75.3 °F 47.9 °F 29.92 in WSW 11.0 mph 21.0 mph 38% 0.00 in
13:59 74.7 °F 48.1 °F 29.92 in WSW 12.0 mph 24.0 mph 39% 0.00 in
14:04 74.7 °F 49.4 °F 29.91 in WSW 11.0 mph 24.0 mph 41% 0.00 in
14:09 74.9 °F 48.3 °F 29.91 in SW 11.0 mph 22.0 mph 39% 0.00 in
14:14 75.0 °F 49.0 °F 29.91 in WSW 13.0 mph 22.0 mph 40% 0.00 in
14:19 74.7 °F 48.1 °F 29.90 in WSW 12.0 mph 22.0 mph 39% 0.00 in
14:24 74.3 °F 48.4 °F 29.90 in SW 13.0 mph 24.0 mph 40% 0.00 in
14:29 74.5 °F 48.6 °F 29.90 in West 9.0 mph 23.0 mph 40% 0.00 in
14:34 74.8 °F 48.9 °F 29.90 in SSW 7.0 mph 21.0 mph 40% 0.00 in
14:39 74.7 °F 48.1 °F 29.90 in West 5.0 mph 23.0 mph 39% 0.00 in
14:44 74.5 °F 48.6 °F 29.90 in WNW 11.0 mph 21.0 mph 40% 0.00 in
14:49 74.2 °F 48.3 °F 29.91 in SW 15.0 mph 24.0 mph 40% 0.00 in
14:54 73.9 °F 48.1 °F 29.91 in WSW 12.0 mph 24.0 mph 40% 0.00 in
14:59 73.7 °F 47.2 °F 29.91 in WSW 12.0 mph 22.0 mph 39% 0.00 in
15:04 73.3 °F 46.8 °F 29.92 in WSW 12.0 mph 23.0 mph 39% 0.00 in
15:09 72.5 °F 46.1 °F 29.93 in WSW 12.0 mph 23.0 mph 39% 0.00 in
15:14 71.7 °F 46.1 °F 29.93 in WSW 12.0 mph 23.0 mph 40% 0.00 in
15:19 71.3 °F 47.0 °F 29.93 in WSW 14.0 mph 22.0 mph 42% 0.00 in
15:24 71.1 °F 46.8 °F 29.93 in WSW 11.0 mph 22.0 mph 42% 0.00 in
15:29 71.2 °F 46.9 °F 29.93 in SW 13.0 mph 28.0 mph 42% 0.00 in
15:34 71.3 °F 47.0 °F 29.93 in SW 9.0 mph 18.0 mph 42% 0.00 in
15:39 71.5 °F 47.8 °F 29.94 in NW 7.0 mph 23.0 mph 43% 0.00 in
15:44 71.4 °F 47.1 °F 29.94 in WNW 8.0 mph 22.0 mph 42% 0.00 in
15:49 71.4 °F 47.7 °F 29.93 in West 15.0 mph 24.0 mph 43% 0.00 in
15:54 71.4 °F 47.7 °F 29.93 in WSW 11.0 mph 24.0 mph 43% 0.00 in
15:59 71.9 °F 47.6 °F 29.93 in WSW 11.0 mph 21.0 mph 42% 0.00 in
16:04 72.2 °F 47.8 °F 29.92 in WSW 10.0 mph 21.0 mph 42% 0.00 in
16:09 72.5 °F 47.5 °F 29.91 in WSW 8.0 mph 21.0 mph 41% 0.00 in
16:14 72.1 °F 47.1 °F 29.91 in SW 10.0 mph 16.0 mph 41% 0.00 in
16:19 71.8 °F 47.5 °F 29.90 in SW 6.0 mph 17.0 mph 42% 0.00 in
16:24 71.2 °F 46.9 °F 29.90 in SW 8.0 mph 17.0 mph 42% 0.00 in
16:29 70.4 °F 47.4 °F 29.87 in SW 8.0 mph 17.0 mph 44% 0.00 in
16:34 70.2 °F 47.9 °F 29.86 in SW 7.0 mph 18.0 mph 45% 0.00 in
16:39 70.1 °F 47.8 °F 29.86 in SW 4.0 mph 13.0 mph 45% 0.00 in
16:44 70.4 °F 48.0 °F 29.87 in WSW 4.0 mph 11.0 mph 45% 0.00 in
16:49 70.7 °F 48.9 °F 29.86 in South 5.0 mph 9.0 mph 46% 0.00 in
16:54 71.1 °F 49.3 °F 29.87 in SW 5.0 mph 9.0 mph 46% 0.00 in
16:59 71.2 °F 48.8 °F 29.87 in SW 4.0 mph 9.0 mph 45% 0.00 in
17:04 71.3 °F 48.9 °F 29.87 in WSW 4.0 mph 8.0 mph 45% 0.00 in
17:09 71.3 °F 48.9 °F 29.88 in SW 4.0 mph 8.0 mph 45% 0.00 in
17:14 71.4 °F 48.9 °F 29.88 in WSW 3.0 mph 7.0 mph 45% 0.00 in
17:19 71.8 °F 49.3 °F 29.89 in WNW 5.0 mph 5.0 mph 45% 0.00 in
17:24 72.5 °F 49.9 °F 29.90 in West 4.0 mph 8.0 mph 45% 0.00 in
17:29 73.1 °F 49.9 °F 29.90 in WNW 5.0 mph 9.0 mph 44% 0.00 in
17:34 73.5 °F 49.0 °F 29.91 in West 7.0 mph 12.0 mph 42% 0.00 in
17:39 73.4 °F 49.5 °F 29.91 in WNW 5.0 mph 10.0 mph 43% 0.00 in
17:44 73.0 °F 49.2 °F 29.91 in NW 6.0 mph 8.0 mph 43% 0.00 in
17:49 72.7 °F 49.5 °F 29.91 in WNW 3.0 mph 9.0 mph 44% 0.00 in
17:54 72.6 °F 50.0 °F 29.91 in WNW 4.0 mph 10.0 mph 45% 0.00 in
17:59 72.8 °F 50.2 °F 29.92 in WNW 4.0 mph 10.0 mph 45% 0.00 in
18:04 73.0 °F 50.4 °F 29.92 in NW 5.0 mph 7.0 mph 45% 0.00 in
18:09 73.1 °F 51.1 °F 29.92 in WNW 9.0 mph 11.0 mph 46% 0.00 in
18:14 73.1 °F 50.5 °F 29.92 in WNW 5.0 mph 9.0 mph 45% 0.00 in
18:19 73.2 °F 50.6 °F 29.92 in West 3.0 mph 10.0 mph 45% 0.00 in
18:24 73.1 °F 50.5 °F 29.92 in WNW 4.0 mph 10.0 mph 45% 0.00 in
18:29 73.2 °F 50.6 °F 29.93 in West 4.0 mph 8.0 mph 45% 0.00 in
18:34 73.2 °F 50.6 °F 29.93 in West 5.0 mph 12.0 mph 45% 0.00 in
18:39 73.3 °F 50.7 °F 29.93 in West 5.0 mph 12.0 mph 45% 0.00 in
18:44 73.3 °F 51.3 °F 29.93 in West 3.0 mph 9.0 mph 46% 0.00 in
18:49 73.2 °F 50.6 °F 29.93 in West 2.0 mph 8.0 mph 45% 0.00 in
18:54 73.1 °F 51.1 °F 29.93 in West 2.0 mph 8.0 mph 46% 0.00 in
18:59 73.0 °F 50.4 °F 29.94 in West 2.0 mph 9.0 mph 45% 0.00 in
19:04 72.9 °F 50.3 °F 29.94 in WNW 3.0 mph 6.0 mph 45% 0.00 in
19:09 72.8 °F 50.2 °F 29.94 in West 2.0 mph 6.0 mph 45% 0.00 in
19:14 72.7 °F 50.7 °F 29.94 in West 2.0 mph 7.0 mph 46% 0.00 in
19:19 72.6 °F 50.6 °F 29.94 in West 1.0 mph 5.0 mph 46% 0.00 in
19:24 72.6 °F 50.6 °F 29.93 in SW 2.0 mph 5.0 mph 46% 0.00 in
19:29 72.2 °F 50.3 °F 29.94 in SSW 2.0 mph 5.0 mph 46% 0.00 in
19:34 71.9 °F 50.0 °F 29.94 in SSW 3.0 mph 6.0 mph 46% 0.00 in
19:39 71.3 °F 49.4 °F 29.94 in SSW 3.0 mph 6.0 mph 46% 0.00 in
19:44 70.5 °F 49.3 °F 29.94 in South 3.0 mph 7.0 mph 47% 0.00 in
19:49 69.6 °F 49.0 °F 29.94 in South 2.0 mph 5.0 mph 48% 0.00 in
19:54 68.8 °F 48.3 °F 29.95 in SSE 6.0 mph 8.0 mph 48% 0.00 in
19:59 67.7 °F 48.4 °F 29.95 in South 4.0 mph 8.0 mph 50% 0.00 in
20:04 66.9 °F 48.2 °F 29.95 in South 5.0 mph 8.0 mph 51% 0.00 in
20:09 66.2 °F 48.0 °F 29.95 in South 4.0 mph 7.0 mph 52% 0.00 in
20:14 65.7 °F 48.1 °F 29.95 in South 4.0 mph 7.0 mph 53% 0.00 in
20:19 65.2 °F 48.1 °F 29.96 in SSW 3.0 mph 5.0 mph 54% 0.00 in
20:24 64.9 °F 48.3 °F 29.96 in South 2.0 mph 6.0 mph 55% 0.00 in
20:29 64.6 °F 48.5 °F 29.97 in South 6.0 mph 9.0 mph 56% 0.00 in
20:34 64.3 °F 48.7 °F 29.97 in SSW 2.0 mph 6.0 mph 57% 0.00 in
20:39 64.0 °F 48.5 °F 29.97 in South 4.0 mph 7.0 mph 57% 0.00 in
20:44 63.8 °F 48.7 °F 29.97 in SSW 4.0 mph 7.0 mph 58% 0.00 in
20:49 63.4 °F 48.4 °F 29.97 in SW 2.0 mph 7.0 mph 58% 0.00 in
20:54 63.2 °F 48.6 °F 29.97 in SW 7.0 mph 7.0 mph 59% 0.00 in
20:59 63.0 °F 48.4 °F 29.97 in SSW 3.0 mph 7.0 mph 59% 0.00 in
21:04 62.9 °F 48.8 °F 29.97 in SSW 3.0 mph 7.0 mph 60% 0.00 in
21:09 62.7 °F 48.6 °F 29.98 in SSW 3.0 mph 6.0 mph 60% 0.00 in
21:14 62.7 °F 48.6 °F 29.98 in SW 3.0 mph 7.0 mph 60% 0.00 in
21:19 62.6 °F 49.0 °F 29.98 in SW 3.0 mph 7.0 mph 61% 0.00 in
21:24 62.5 °F 48.9 °F 29.98 in SSW 3.0 mph 5.0 mph 61% 0.00 in
21:29 62.5 °F 48.9 °F 29.98 in SW 1.0 mph 4.0 mph 61% 0.00 in
21:34 62.5 °F 49.3 °F 29.97 in SSW 3.0 mph 4.0 mph 62% 0.00 in
21:39 62.5 °F 51.0 °F 29.98 in SSW 2.0 mph 3.0 mph 66% 0.00 in
21:44 62.5 °F 51.8 °F 29.98 in Calm   4.0 mph 68% 0.01 in
21:49 62.3 °F 52.0 °F 29.98 in South 1.0 mph 6.0 mph 69% 0.04 in
21:54 62.1 °F 52.6 °F 29.97 in Calm   4.0 mph 71% 0.04 in
21:59 61.9 °F 52.8 °F 29.98 in Calm   4.0 mph 72% 0.04 in
22:04 61.7 °F 53.0 °F 29.98 in Calm   3.0 mph 73% 0.04 in
22:09 61.4 °F 52.7 °F 29.98 in Calm   3.0 mph 73% 0.04 in
22:14 61.2 °F 52.8 °F 29.98 in Calm   2.0 mph 74% 0.04 in
22:19 61.0 °F 53.0 °F 29.98 in Calm     75% 0.04 in
22:24 60.8 °F 53.2 °F 29.98 in Calm     76% 0.04 in
22:29 60.7 °F 53.1 °F 29.98 in Calm     76% 0.04 in
22:34 60.5 °F 52.9 °F 29.98 in Calm     76% 0.04 in
22:39 60.4 °F 53.2 °F 29.98 in Calm     77% 0.04 in
22:44 60.2 °F 53.0 °F 29.98 in Calm     77% 0.03 in
22:49 60.1 °F 52.9 °F 29.98 in Calm     77% 0.00 in
22:54 59.9 °F 52.7 °F 29.98 in Calm     77% 0.00 in
22:59 59.9 °F 53.0 °F 29.98 in Calm     78% 0.00 in
23:04 59.8 °F 52.9 °F 29.98 in Calm     78% 0.00 in
23:09 59.8 °F 52.9 °F 30.00 in West 1.0 mph 4.0 mph 78% 0.00 in
23:14 59.7 °F 52.8 °F 29.99 in West 1.0 mph 4.0 mph 78% 0.00 in
23:19 59.7 °F 52.8 °F 29.99 in West 1.0 mph 4.0 mph 78% 0.00 in
23:24 59.7 °F 52.5 °F 29.99 in Calm   1.0 mph 77% 0.00 in
23:29 59.7 °F 52.5 °F 29.99 in Calm     77% 0.00 in
23:34 59.7 °F 52.5 °F 29.99 in Calm     77% 0.00 in
23:39 59.7 °F 52.5 °F 29.98 in Calm     77% 0.00 in
23:44 59.7 °F 52.5 °F 29.98 in Calm     77% 0.00 in
23:49 59.6 °F 52.4 °F 29.98 in Calm     77% 0.00 in
23:54 59.5 °F 52.3 °F 29.98 in Calm   3.0 mph 77% 0.00 in
23:59 59.3 °F 51.7 °F 29.98 in Calm   2.0 mph 76% 0.00 in
Buffalo, New York, USA
Compliments of Weather Underground - 2.5 mb